[[{"header":{"parameterUnit":"m.s-1","parameterCategory":1,"la1":30.2991,"la2":30.254,"lo1":-89.0895,"lo2":-89.0444,"dy":0.0017,"dx":0.0017,"nx":28,"ny":28,"refTime":"2025-11-30T03:00:00:Z","depth":0,"parameterNumber":2,"parameterNumberName":"U-component_of_WINDS"},"data":[0,0,0,0,0,0,0,0,0,0,0,0,0,0,0,0,0,0,0,0,0,0,0,0,0,0,0,0,0,0,0,0,0,0,0,0,0,0,0,0,0,0,0,0,0,0,0,0,0,0,0,0,0,0,0,0,0,0,-2.8449,-2.845,0,-2.8619,-2.8621,-2.8623,-2.8591,-2.8588,-2.8585,-2.8582,-2.8761,-2.8768,-2.8776,0,0,0,0,0,0,0,0,0,0,0,0,0,-2.8098,-2.8105,-2.8448,-2.8451,-2.8453,-2.8619,-2.8621,-2.8624,-2.8592,-2.8588,-2.8584,-2.8581,-2.8758,-2.8767,-2.8776,0,0,0,0,0,0,0,0,0,0,0,0,0,-2.8258,-2.8107,-2.8448,-2.8457,-2.8459,-2.8619,-2.8621,-2.8624,-2.8592,-2.8588,-2.8583,-2.8579,-2.8755,-2.8766,-2.8778,-2.8941,0,0,-2.8813,-2.8818,0,0,0,0,0,0,0,0,-2.8249,-2.8271,-2.8453,-2.8456,-2.8459,-2.8579,-2.8564,-2.8731,-2.8593,-2.8542,-2.8582,-2.8577,-2.8704,-2.872,-2.8762,-2.8949,-2.8957,-2.8814,-2.8821,-2.8826,-2.8829,0,0,0,0,0,0,0,-2.8238,-2.8263,-2.8516,-2.8456,-2.846,-2.8453,-2.8471,-2.8595,-2.8647,-2.8546,-2.8544,-2.8564,-2.8705,-2.8751,-2.8766,-2.8959,-2.8813,-2.8824,-2.8831,-2.8835,-2.9291,-2.9296,0,0,0,0,0,0,-2.8224,-2.8254,-2.8511,-2.8521,-2.8341,-2.8463,-2.8483,-2.8545,-2.8646,-2.8656,-2.8568,-2.8562,-2.8734,-2.8753,-2.8772,-2.8971,-2.8825,-2.8836,-2.8843,-2.9286,-2.9292,-2.9298,0,0,0,0,0,0,-2.8216,-2.8247,-2.8504,-2.8387,-2.842,-2.8474,-2.8545,-2.8551,-2.8597,-2.8662,-2.8672,-2.8605,-2.8731,-2.8756,-2.8899,-2.8977,-2.8841,-2.8852,-2.928,-2.9288,-2.9295,-2.937,0,0,0,0,0,0,-2.8206,-2.8244,-2.8306,-2.8389,-2.8426,-2.8627,-2.8549,-2.8558,-2.8616,-2.861,-2.87,-2.871,-2.8729,-2.8882,-2.8911,-2.899,-2.8861,-2.9273,-2.9283,-2.9292,-2.9361,-2.938,-2.9396,0,0,0,0,0,-2.8194,-2.8321,-2.8309,-2.834,-2.8504,-2.8632,-2.8653,-2.8671,-2.8623,-2.8686,-2.8728,-2.8707,-2.8963,-2.8897,-2.8929,-2.9013,-2.9268,-2.928,-2.9292,-2.9353,-2.9376,-2.9395,0,0,0,0,0,0,-2.8246,-2.8332,-2.832,-2.8477,-2.8547,-2.8626,-2.8706,-2.8694,-2.8781,-2.8772,-2.8792,-2.8812,-2.8958,-2.9,-2.8924,-2.9177,-2.9109,-2.9128,-2.9145,-2.9167,-2.9184,-2.9172,-2.887,0,0,0,0,0,-2.8276,-2.8371,-2.8441,-2.8573,-2.8609,-2.8651,-2.8708,-2.8716,-2.879,-2.882,-2.8872,-2.8946,-2.9043,-2.9107,-2.92,-2.9366,-2.9386,-2.944,-2.9457,-2.9471,-2.9488,-2.9581,-2.9606,-2.9337,-2.9336,-2.9336,0,0,-2.8339,-2.8397,-2.8456,-2.8585,-2.864,-2.874,-2.8677,-2.8785,-2.886,-2.8836,-2.8975,-2.9016,-2.91,-2.9256,-2.9327,-2.9295,-2.9566,-2.9486,-2.9496,-2.9506,-2.9595,-2.9621,-2.9644,-2.9345,-2.9343,-2.9342,0,0,-2.8504,-2.8557,-2.8674,-2.873,-2.8814,-2.8842,-2.887,-2.8951,-2.8977,-2.9116,-2.9101,-2.9191,-2.9358,-2.9419,-2.9472,-2.9661,-2.9646,-2.9691,-2.9782,-2.9872,-2.9894,-2.9913,-2.9983,-3.0007,-2.9706,-2.9707,-2.9707,0,-2.8572,-2.8721,-2.8735,-2.8846,-2.8904,-2.8886,-2.9005,-2.906,-2.9171,-2.9212,-2.9174,-2.9383,-2.9438,-2.9609,-2.9655,-2.9698,-2.9732,-2.9682,-2.9889,-2.9908,-2.9926,-2.9993,-3.0019,-2.9712,-2.9711,-2.9711,-2.971,0,-2.8801,-2.8905,-2.8989,-2.9096,-2.9163,-2.9277,-2.9311,-2.9377,-2.9379,-2.9411,-2.9555,-2.962,-2.9726,-2.9767,-2.977,-2.9939,-2.9917,-2.9884,-2.9816,-2.9957,-3.002,-3.0046,-2.9719,-2.9717,-2.9716,-2.9714,0,0,-2.9006,-2.9119,-2.915,-2.9199,-2.9291,-2.9372,-2.9486,-2.9589,-2.9647,-2.9724,-2.9822,-2.9963,-2.9933,-2.9993,-3.0003,-3.0082,-3.0231,-3.004,-3.0042,-3.0075,-3.0424,-3.0451,-3.048,-3.0221,-3.0225,-3.0229,-3.0418,0,-2.9183,-2.9383,-2.9399,-2.958,-2.9678,-2.9662,-2.9761,-2.9829,-2.9862,-2.9951,-2.9987,-3.0088,-3.004,-3.0076,-3.0153,-3.0197,-3.0302,-3.0183,-3.0314,-3.0319,-3.0296,-3.0513,-3.0541,-3.0716,-3.0443,-3.0447,-3.045,0,-2.9415,-2.9499,-2.9689,-2.9768,-2.981,-2.9899,-2.9996,-3.0079,-3.0157,-3.0175,-3.0243,-3.0242,-3.0361,-3.0287,-3.0453,-3.0372,-3.0426,-3.0455,-3.0463,-3.0478,-3.0395,-3.0536,-3.0772,-3.0799,-3.0489,-3.0485,-3.0483,0,-2.9549,-2.9709,-2.9844,-2.9886,-2.9981,-3.0044,-3.0087,-3.016,-3.0221,-3.0306,-3.0346,-3.0444,-3.0499,-3.0575,-3.0601,-3.0545,-3.0767,-3.0695,-3.0788,-3.0788,-3.0838,-3.0835,-3.1088,-3.0869,-3.0868,-3.0868,-3.0867,0,-2.9746,-2.9863,-2.9905,-2.9989,-3.0121,-3.0139,-3.027,-3.0309,-3.0374,-3.0466,-3.0458,-3.0545,-3.0573,-3.0665,-3.0687,-3.0822,-3.0846,-3.0866,-3.0871,-3.0869,-3.0867,-3.0907,-3.0896,-3.0875,-3.0873,-3.0872,-3.0871,0,-2.9918,-2.995,-3.0097,-3.0175,-3.0197,-3.0292,-3.0359,-3.044,-3.0471,-3.0588,-3.0617,-3.0666,-3.0775,-3.0808,-3.0938,-3.0953,-3.1112,-3.1105,-3.1086,-3.1087,-3.118,-3.1172,-3.147,-3.1511,-3.1262,-3.1264,-3.1266,0,-3.0043,-3.0133,-3.022,-3.0281,-3.0326,-3.0424,-3.0486,-3.0508,-3.0574,-3.0669,-3.074,-3.0846,-3.0933,-3.1107,-3.1156,-3.1256,-3.1253,-3.135,-3.1268,-3.1263,-3.1258,-3.1253,-3.1263,-3.1367,-3.1369,-3.1371,-3.1373,0,-3.0261,-3.0273,-3.0363,-3.0459,-3.0534,-3.0611,-3.0685,-3.0736,-3.0768,-3.0843,-3.0953,-3.102,-3.1153,-3.126,-3.1362,-3.1408,-3.1398,-3.1398,-3.1426,-3.1426,-3.1412,-3.1423,-3.1131,-3.1392,-3.139,-3.1389,-3.1388,-3.1387,-3.0416,-3.0496,-3.057,-3.0671,-3.0729,-3.0799,-3.088,-3.092,-3.1012,-3.1122,-3.1129,-3.1249,-3.1325,-3.1461,-3.1512,-3.1607,-3.1579,-3.1618,-3.1628,-3.1639,-3.1647,-3.1394,-3.1625,-3.1625,-3.1624,-3.1624,-3.1623,0,-3.0636,-3.0683,-3.0776,-3.088,-3.096,-3.094,-3.1021,-3.109,-3.1196,-3.1267,-3.1352,-3.148,-3.1584,-3.164,-3.1744,-3.181,-3.1808,-3.1837,-3.1834,-3.1845,-3.1665,-3.1632,-3.1837,-3.1837,-3.1837,-3.1837,-3.1837,-3.1837,-3.0761,-3.0896,-3.0917,-3.1081,-3.1128,-3.1244,-3.1293,-3.1358,-3.1415,-3.1557,-3.1643,-3.1679,-3.1745,-3.1854,-3.1949,-3.1963,-3.2003,-3.2036,-3.2047,-3.1879,-3.1857,-3.1836,-3.1806,-3.2044,-3.2044,-3.2219,-3.2221,-3.2222]},{"header":{"parameterUnit":"m.s-1","parameterCategory":1,"la1":30.2991,"la2":30.254,"lo1":-89.0895,"lo2":-89.0444,"dy":0.0017,"dx":0.0017,"nx":28,"ny":28,"refTime":"2025-11-30T03:00:00:Z","depth":0,"parameterNumber":3,"parameterNumberName":"V-component_of_WINDS"},"data":[0,0,0,0,0,0,0,0,0,0,0,0,0,0,0,0,0,0,0,0,0,0,0,0,0,0,0,0,0,0,0,0,0,0,0,0,0,0,0,0,0,0,0,0,0,0,0,0,0,0,0,0,0,0,0,0,0,0,-5.1442,-5.1441,0,-5.1385,-5.1384,-5.1384,-5.1279,-5.1277,-5.1275,-5.1273,-5.1217,-5.1217,-5.1217,0,0,0,0,0,0,0,0,0,0,0,0,0,-5.1461,-5.1461,-5.1442,-5.1441,-5.144,-5.1385,-5.1384,-5.1383,-5.128,-5.1277,-5.1275,-5.1272,-5.1217,-5.1217,-5.1217,0,0,0,0,0,0,0,0,0,0,0,0,0,-5.1433,-5.1461,-5.1442,-5.1382,-5.1376,-5.1385,-5.1384,-5.1383,-5.128,-5.1277,-5.1274,-5.1271,-5.1216,-5.1217,-5.1217,-5.1281,0,0,-5.1219,-5.1219,0,0,0,0,0,0,0,0,-5.1435,-5.1432,-5.1391,-5.1386,-5.1379,-5.1336,-5.137,-5.1349,-5.1281,-5.1317,-5.1273,-5.127,-5.1259,-5.1256,-5.1252,-5.1278,-5.1276,-5.1219,-5.1219,-5.122,-5.122,0,0,0,0,0,0,0,-5.1437,-5.1434,-5.1419,-5.1391,-5.1383,-5.1358,-5.135,-5.1365,-5.1305,-5.1313,-5.1305,-5.13,-5.1255,-5.1252,-5.125,-5.1275,-5.1219,-5.122,-5.122,-5.122,-5.135,-5.1353,0,0,0,0,0,0,-5.1447,-5.1437,-5.1421,-5.1417,-5.14,-5.136,-5.1352,-5.1353,-5.1305,-5.1295,-5.1303,-5.1295,-5.1252,-5.1249,-5.1247,-5.1317,-5.122,-5.122,-5.1221,-5.1346,-5.135,-5.1354,0,0,0,0,0,0,-5.1448,-5.1447,-5.1423,-5.1425,-5.142,-5.1363,-5.1365,-5.1353,-5.135,-5.1297,-5.1286,-5.131,-5.125,-5.1246,-5.1273,-5.1314,-5.122,-5.1221,-5.1343,-5.1348,-5.1352,-5.1459,0,0,0,0,0,0,-5.1449,-5.1448,-5.1471,-5.1426,-5.142,-5.145,-5.1367,-5.1354,-5.1351,-5.1341,-5.1301,-5.1291,-5.1247,-5.1273,-5.1274,-5.1313,-5.1221,-5.1339,-5.1345,-5.135,-5.1452,-5.1467,-5.148,0,0,0,0,0,-5.145,-5.1505,-5.1473,-5.1472,-5.1448,-5.1453,-5.1449,-5.1397,-5.1355,-5.1378,-5.1344,-5.1293,-5.131,-5.1276,-5.1276,-5.1317,-5.1336,-5.1343,-5.135,-5.1445,-5.1464,-5.148,0,0,0,0,0,0,-5.1557,-5.1498,-5.1462,-5.1503,-5.1484,-5.1435,-5.1463,-5.1418,-5.1411,-5.1402,-5.1337,-5.1329,-5.1364,-5.1343,-5.1307,-5.1375,-5.1315,-5.1322,-5.1387,-5.1404,-5.1418,-5.1422,-5.1222,0,0,0,0,0,-5.1585,-5.1593,-5.1541,-5.1583,-5.1574,-5.1521,-5.1521,-5.1482,-5.1459,-5.145,-5.1418,-5.1398,-5.1398,-5.14,-5.1398,-5.1448,-5.1438,-5.1476,-5.149,-5.1502,-5.1509,-5.1532,-5.1549,-5.1377,-5.1377,-5.1376,0,0,-5.1644,-5.1612,-5.1621,-5.1603,-5.1583,-5.1593,-5.1514,-5.1529,-5.1535,-5.1452,-5.1475,-5.1451,-5.1424,-5.1463,-5.1478,-5.1446,-5.1554,-5.1511,-5.1521,-5.1521,-5.1541,-5.1558,-5.1572,-5.1381,-5.138,-5.138,0,0,-5.1755,-5.1733,-5.1764,-5.1745,-5.1716,-5.168,-5.1688,-5.1646,-5.1626,-5.1648,-5.1585,-5.1592,-5.1595,-5.1578,-5.157,-5.1675,-5.1627,-5.1676,-5.1749,-5.1773,-5.1787,-5.1798,-5.1834,-5.1848,-5.1683,-5.1683,-5.1683,0,-5.1832,-5.1844,-5.1786,-5.1803,-5.1797,-5.1722,-5.1753,-5.1738,-5.171,-5.1707,-5.1672,-5.1673,-5.165,-5.1683,-5.1708,-5.1704,-5.171,-5.168,-5.1789,-5.18,-5.181,-5.1844,-5.1858,-5.1689,-5.1688,-5.1688,-5.1687,0,-5.1939,-5.1948,-5.1977,-5.1951,-5.1947,-5.1972,-5.1918,-5.1922,-5.1883,-5.185,-5.1873,-5.1842,-5.1832,-5.1837,-5.18,-5.1864,-5.1845,-5.1801,-5.1739,-5.1834,-5.1864,-5.1877,-5.1698,-5.1696,-5.1694,-5.1692,0,0,-5.2116,-5.2057,-5.2068,-5.2055,-5.2017,-5.2023,-5.2044,-5.2033,-5.2037,-5.202,-5.2035,-5.2039,-5.1997,-5.1988,-5.1948,-5.1969,-5.2052,-5.1922,-5.192,-5.1946,-5.212,-5.2153,-5.2169,-5.2021,-5.2023,-5.2025,-5.2122,0,-5.2218,-5.225,-5.2198,-5.2242,-5.2249,-5.2178,-5.2196,-5.2174,-5.2144,-5.2146,-5.2113,-5.2116,-5.2061,-5.2055,-5.2073,-5.2039,-5.2086,-5.2031,-5.2034,-5.2034,-5.2042,-5.2185,-5.222,-5.2313,-5.2133,-5.2135,-5.2137,0,-5.2342,-5.233,-5.2375,-5.2333,-5.2334,-5.2351,-5.2336,-5.2339,-5.2313,-5.229,-5.2279,-5.2232,-5.2249,-5.2189,-5.2211,-5.2175,-5.2173,-5.2156,-5.2158,-5.2156,-5.2091,-5.2185,-5.2341,-5.2355,-5.2155,-5.2154,-5.2152,0,-5.2465,-5.2461,-5.2486,-5.2477,-5.2429,-5.2443,-5.2424,-5.2395,-5.2391,-5.2378,-5.2375,-5.2365,-5.236,-5.2353,-5.2303,-5.2265,-5.2331,-5.2268,-5.2311,-5.2313,-5.2328,-5.2328,-5.2485,-5.2329,-5.2329,-5.2328,-5.2328,0,-5.2584,-5.2614,-5.2541,-5.2556,-5.2587,-5.2528,-5.256,-5.2533,-5.2508,-5.2517,-5.2455,-5.2465,-5.24,-5.2402,-5.2364,-5.2387,-5.2385,-5.2366,-5.2356,-5.2372,-5.2374,-5.2369,-5.2361,-5.2332,-5.2331,-5.233,-5.233,0,-5.2727,-5.2679,-5.2702,-5.2655,-5.2644,-5.2668,-5.2628,-5.264,-5.2606,-5.2618,-5.2617,-5.2564,-5.2563,-5.2514,-5.2503,-5.2477,-5.2517,-5.2495,-5.2525,-5.2518,-5.2564,-5.256,-5.2723,-5.2741,-5.2575,-5.2576,-5.2578,0,-5.2806,-5.2827,-5.2782,-5.2783,-5.2767,-5.277,-5.2766,-5.2708,-5.2706,-5.2677,-5.2693,-5.2688,-5.268,-5.2683,-5.2643,-5.2634,-5.2611,-5.2668,-5.2609,-5.2624,-5.261,-5.2609,-5.261,-5.2681,-5.2683,-5.2685,-5.2686,0,-5.2951,-5.2926,-5.2922,-5.291,-5.2906,-5.2894,-5.2878,-5.2883,-5.2819,-5.282,-5.2819,-5.2813,-5.2802,-5.2797,-5.2781,-5.276,-5.2713,-5.2705,-5.2714,-5.273,-5.2747,-5.2737,-5.2558,-5.2702,-5.27,-5.2699,-5.2698,-5.2697,-5.3063,-5.3078,-5.3048,-5.3045,-5.3027,-5.3013,-5.3022,-5.2989,-5.2986,-5.2972,-5.2939,-5.2943,-5.2915,-5.2888,-5.2872,-5.2874,-5.2845,-5.2859,-5.2862,-5.2866,-5.2874,-5.2747,-5.2871,-5.287,-5.287,-5.2869,-5.2869,0,-5.3203,-5.318,-5.3179,-5.3158,-5.3156,-5.3111,-5.309,-5.3092,-5.3096,-5.3074,-5.3067,-5.3065,-5.306,-5.3019,-5.3009,-5.3018,-5.2996,-5.3018,-5.3016,-5.3012,-5.2902,-5.2894,-5.3036,-5.3036,-5.3036,-5.3036,-5.3036,-5.3036,-5.3276,-5.3298,-5.327,-5.3282,-5.3259,-5.3262,-5.3254,-5.3241,-5.3223,-5.3223,-5.3218,-5.3192,-5.3162,-5.3149,-5.3142,-5.313,-5.3128,-5.3157,-5.3138,-5.3036,-5.302,-5.3004,-5.2997,-5.3158,-5.3158,-5.3247,-5.3248,-5.3249]}]]